SCP
-0 -0 -0 -0 0 0 0 0 0 0 0 0 0 0 0 0 0 0 0 0 0 0 0 0 0 0 0 0 0 0 0 0 0 0 0 0 0 0 -0 -0 0 0 0
0 -0 -0 0 0 0 0 0 0 0 0 0 0 0 0 0 0 0 0 0 0 0 0 0 0 0 0 0 0 0 0 0 0 0 0 0 0 0 0 0 0 0 0
0 0 0 0 0 0 0 0 0 0 0 0 0 0 0 0 0 0 0 0 0 -0 -0 0 0 0 0 0 0 0 0 0 0 0 0 0 0 0 0 0 0 0 0
0 0 0 0 0 0 0 0 0 0 0 0 0 0 0 0 0 0 0 0 0 0 0 0 0 0 0 0 0 0 0 0 0 0 0 0 0 0 0 0 0 0 0
0 0 0 0 0 0 0 0 0 0 0 0 0 0 0 0 0 0 0 0 0 0 0 0 0 0 0 0 0 0 0 0 0 0 0 0 0 0 0 0 0 0 0
0 0 0 0 0 0 0 0 0 0 0 0 0 0 0 0 0 0 0 0 0 0 0 0 0 0 0 0 0 0 0 0 0 0 0 0 0 0 0 0 0 0 0
0 0 0 0 0 0 0 0 0 0 0 0 0 0 0 0 0 0 0 0 0 0 0 0 0 0 0 0 0 0 0 0 0 0 0 0 0 0 0 0 0 0 0
0 0 0 0 0 0 0 0 0 0 0 0 0 0 0 0 0 0 0 0 0 0 0 0 0 0 0 0 0 0 0 0 0 0 0 0 0 0 0 0 0 0 0
0 0 0 0 0 0 0 0 0 0 0 0 0 0 0 0 0 0 0 0 0 0 0 0 0 0 0 0 0 0 0 0 0 0 0 0 0 0 0 0 0 0 0
0 0 0 0 0 0 0 0 0 0 0 0 0 0 0 0 0 0 0 0 0 0 0 0 0 0 0 0 0 0 0 0 0 0 0 0 0 0 0 0 0 0 0
0 0 0 0 0 0 0 0 0 0 0 0 0 0 0 0 0 0 0 0 0 0 0 0 0 0 0 0 0 0 0 0 0 0 0 0 0 0 0 0 0 0 0
0 0 0 0 0 0 0 0 0 0 0 0 0 0 0 0 0 0 0 0 0 0 0 0 0 0 0 0 0 0 0 0 0 0 0 0 0 0 0 0 0 0 0
0 0 0 0 0 0 0 0 0 0 0 0 0 0 0 0 0 0 0 0 0 0 0 0 0 0 0 0 0 0 0 0 0 0 0 0 0 0 0 0 0 0 0
0 0 0 0 0 0 0 0 0 0 0 0 0 0 0 0 0 0 0 0 0 0 0 0 0 0 0 0 0 0 0 0 0 0 0 0 0 0 0 0 0 0 0
0 0 0 0 0 0 0 0 0 0 0 0 0 0 0 0 0 0 0 0 0 0 0 0 0 0 0 0 0 0 0 0 0 0 0 0 0 0 0 0 0 0 0
0 0 0 0 0 0 0 0 0 0 0 0 0 0 0 0 0 0 0 0 0 0 0 0 0 0 0 0 0 0 0 0 0 0 0 0 0 0 0 0 0 0 0
0 0 0 0 0 0 0 0 0 0 0 0 0 0 0 0 0 0 0 0 0 0 0 0 0 0 0 0 0 0 0 0 0 0 0 0 0 0 0 0 0 0 0
0 0 0 0 0 0 0 0 0 0 0 0 0 0 0 0 0 0 0 0 0 0 0 0 0 0 0 0 0 0 0 0 0 0 0 0 0 0 0 0 0 0 0
0 0 0 0 0 0 0 0 0 0 0 0 0 0 0 0 0 0 0 0 0 0 0 0 0 0 0 0 0 0 0 0 0 0 0 0 0 0 0 0 0 0 0
0 0 0 0 0 0 0 0 0 0 0 0 0 0 0 0 0 0 0 0 0 0 0 0 0 0 0 0 0 0 0 0 0 0 0 0 0 0 0 0 0 0 0
0 0 0 0 0 0 0 0 0 0 0 0 0 0 0 0 0 0 0 0 0 0 0 0 0 0 0 0 0 0 0 0 0 0 0 0 0 0 0 0 0 0 0
0 0 0 0 0 0 0 0 0 0 0 0 0 0 0 0 0 0 0 0 0 0 0 0 0 0 0 0 0 0 0 0 0 0 0 0 0 0 0 0 0 0 0
0 0 0 0 0 0 0 0 0 0 0 0 0 0 0 0 0 0 0 0 0 0 0 0 0 0 0 0 0 0 0 0 0 0 0 0 0 0 0 0 0 0 0
0 0 0 0 0 0 0 0 0 0 0 0 0 0 0 0 0 0 0 0 0 0 0 0 0 0 0 0 0 0 0 0 0 0 0 0 0 0 0 0 0 0 0
0 0 0 0 0 0 0 0 0 0 0 0 0 0 0 0 0 0 0 0 0 0 0 0 0 0 0 0 0 0 0 0 0 0 0 0 0 0 0 0 0 0 0
0 0 0 0 0 0 0 0 0 0 0 0 0 0 0 0 0 0 0 0 0 0 0 0 0 0 0 0 0 0 0 0 0 0 0 0 0 0 0 0 0 0 0
Wind_Speed
9 8 7 6 5 4 3 4 3 3 3 3 3 3 3 3 3 3 2 2 2 2 2 2 2 2 1 1 1 1 1 1 1 1 1 1 1 2 2 2 2 2 2
8 8 7 6 6 6 5 4 4 4 3 3 3 3 3 2 2 2 2 2 1 2 2 2 2 2 1 1 1 1 1 1 1 1 0 1 1 2 2 2 2 2 2
9 8 8 7 7 6 6 5 4 4 4 4 3 3 3 2 2 2 2 2 1 1 1 1 1 1 1 1 0 1 0 0 1 1 1 1 1 1 2 2 2 2 2
10 9 9 8 7 7 6 5 5 4 4 4 3 3 3 3 3 2 2 1 1 1 1 1 1 1 1 1 0 1 1 0 0 1 1 1 1 2 2 2 2 2 2
11 10 10 9 8 7 7 6 5 5 4 4 3 3 3 2 2 2 2 2 1 1 1 1 2 3 5 4 2 2 1 1 1 1 1 2 2 2 2 3 3 3 2
11 10 9 9 8 8 7 7 6 5 5 4 4 3 3 2 3 1 1 2 2 1 1 1 1 1 1 1 1 3 4 3 2 2 2 3 3 3 3 4 4 4 3
11 10 10 9 9 9 8 7 7 6 6 5 5 4 4 4 5 4 3 3 2 1 1 1 1 1 1 1 2 3 1 1 4 5 4 4 4 4 4 4 4 5 5
11 10 10 10 10 9 8 8 8 7 6 5 5 5 4 3 5 5 5 4 2 2 2 2 2 1 0 1 1 1 1 1 2 3 4 4 5 5 5 6 6 5 5
10 10 10 10 10 9 9 9 7 6 6 5 5 4 4 4 5 5 5 3 3 3 2 2 3 2 1 1 3 2 2 1 1 0 2 3 4 4 5 4 4 4 5
10 10 10 10 10 10 9 8 7 6 6 5 5 4 4 4 4 5 6 3 3 3 2 2 1 2 1 2 4 3 3 2 2 2 3 4 3 2 4 5 4 5 5
9 9 9 10 10 9 8 7 7 6 6 5 5 5 4 3 4 5 5 4 3 3 2 2 1 3 3 3 5 4 3 4 3 3 3 2 2 2 2 3 3 4 5
9 9 9 9 8 8 8 7 7 7 6 6 5 5 4 4 3 4 5 5 4 3 2 2 1 3 2 3 3 1 1 3 3 3 3 3 3 3 3 3 4 4 5
10 10 9 9 8 8 8 8 7 6 6 5 5 4 4 3 4 5 5 4 4 3 1 1 1 2 2 3 3 3 4 3 3 3 3 3 3 3 3 3 4 4 5
10 10 9 9 8 8 6 6 6 6 6 5 5 5 4 3 3 4 4 4 5 4 2 3 3 2 2 2 2 3 3 2 3 3 3 3 3 3 3 3 4 4 4
10 9 9 8 8 7 6 4 5 4 4 5 5 4 4 4 2 2 3 3 3 2 2 2 2 2 2 2 2 2 2 2 2 3 3 3 3 3 3 3 4 4 5
9 9 7 7 7 6 6 5 3 1 3 2 1 2 2 2 4 4 3 2 3 4 3 3 2 2 2 2 2 2 2 2 2 3 3 3 3 4 4 3 4 4 5
9 8 7 7 7 7 6 6 5 4 4 3 3 3 2 4 5 5 4 4 4 4 3 3 2 2 2 2 2 2 2 2 2 3 3 3 4 4 4 4 4 5 5
8 7 7 7 7 6 6 6 5 5 5 4 4 5 5 5 5 5 6 5 3 3 3 2 2 2 2 2 2 2 2 2 2 3 3 3 4 4 4 5 5 5 6
7 6 6 6 6 6 6 6 5 6 4 4 4 4 5 6 5 5 6 4 3 3 2 2 2 2 2 2 2 2 3 3 3 3 3 4 4 4 5 5 6 6 6
6 7 7 6 6 6 6 6 6 6 5 4 4 4 5 5 4 4 4 3 3 2 2 2 2 2 2 2 2 2 3 3 3 3 3 4 4 5 6 7 6 6 6
6 7 8 7 6 6 6 6 6 6 5 5 4 4 5 5 4 4 3 3 3 3 2 2 2 2 1 2 2 3 3 3 3 4 4 4 4 5 5 6 6 6 6
6 7 7 6 6 6 6 6 5 5 5 5 4 5 6 4 3 3 3 3 2 2 2 2 2 1 2 2 2 3 3 3 3 4 4 4 4 5 5 5 5 5 5
6 7 7 6 6 6 6 6 5 5 5 5 5 4 5 4 3 3 3 2 2 2 2 2 2 2 2 2 2 2 3 3 3 4 4 4 4 4 5 5 6 7 6
6 7 7 6 6 6 6 6 5 5 5 5 5 4 4 4 3 3 3 2 2 2 2 2 2 2 2 2 2 2 2 3 4 4 5 5 5 5 5 5 6 7 7
6 6 6 6 6 6 6 6 6 5 5 5 4 4 4 4 3 3 3 2 3 2 2 2 1 2 2 2 2 2 2 3 4 5 5 4 5 5 6 6 6 6 7
6 6 6 5 5 6 6 6 5 5 5 4 4 4 4 4 3 3 3 3 2 2 2 2 2 2 2 2 2 2 1 2 4 6 5 4 5 5 5 5 7 7 7
Wind_Direction
187 185 181 176 174 173 170 159 157 152 155 155 151 148 135 129 120 110 96 94 80 87 88 69 65 51 56 53 27 8 353 320 313 51 69 45 18 357 12 355 356 353 61
186 183 182 176 176 181 174 167 166 162 165 164 154 154 143 138 132 129 124 118 88 66 64 66 67 82 63 42 23 34 35 345 324 330 339 16 346 350 343 339 352 8 3
183 182 182 182 183 185 180 172 172 168 164 162 158 156 151 152 144 143 141 135 111 80 54 40 46 63 75 78 19 5 2 30 312 285 346 4 310 337 326 332 341 336 330
182 184 187 190 188 186 181 177 175 171 172 168 163 165 165 162 161 158 151 151 129 102 68 35 19 8 349 5 344 341 330 303 280 285 307 307 306 320 307 315 320 328 312
184 187 190 188 186 186 181 180 176 174 178 173 169 170 172 176 177 177 167 170 170 155 135 84 48 35 23 6 350 339 322 294 283 291 301 300 304 310 314 310 308 307 304
187 189 187 188 185 187 185 182 178 178 183 180 184 182 178 172 127 160 239 186 193 196 193 177 134 152 129 133 6 356 348 323 314 299 295 300 312 311 307 298 305 307 309
190 187 184 186 186 190 186 182 182 185 187 190 195 193 196 171 155 172 213 232 222 236 236 229 194 161 228 198 169 188 202 309 305 307 307 312 314 319 306 298 303 305 306
189 186 184 185 187 190 188 187 192 194 188 196 199 200 202 182 169 183 203 224 222 223 236 243 237 238 224 284 262 258 286 290 291 279 301 314 322 320 307 302 301 291 289
189 188 185 186 186 187 189 191 193 193 192 196 198 199 202 193 179 193 214 219 218 222 231 248 255 247 114 254 258 262 268 246 141 229 323 322 343 332 311 293 295 290 293
190 190 186 185 185 188 190 188 184 186 192 195 195 203 206 209 165 190 218 221 223 222 221 222 230 260 164 237 255 263 271 280 280 239 228 230 251 241 258 277 292 293 298
183 182 180 180 183 185 186 184 184 185 188 196 197 200 204 204 172 183 213 232 229 234 234 233 191 170 206 238 268 279 302 305 290 288 290 289 281 283 271 272 283 289 293
170 173 176 177 178 179 180 183 187 185 188 195 202 202 204 196 195 182 201 232 266 246 250 250 129 135 189 233 250 265 287 279 275 279 280 285 291 295 295 294 289 281 280
168 171 174 174 176 178 179 181 183 187 194 199 203 206 203 195 176 180 195 205 225 240 257 60 78 156 195 212 210 228 240 249 264 275 282 290 296 298 299 296 287 282 281
170 171 171 173 174 176 178 184 186 190 195 200 203 206 204 198 197 180 181 178 176 194 198 153 165 195 217 232 217 216 231 255 275 279 287 291 292 291 288 287 284 283 278
172 169 170 170 168 170 171 176 191 194 201 203 202 204 204 207 176 160 197 193 191 180 182 197 207 209 223 226 228 236 242 240 247 263 275 283 286 285 285 287 287 287 286
171 170 169 167 168 169 166 155 92 126 124 155 184 218 188 135 130 153 168 160 149 163 199 216 222 236 251 256 253 247 247 260 270 275 279 284 287 288 290 291 288 286 287
175 170 168 171 171 173 174 173 163 137 121 141 160 163 163 136 142 153 154 153 166 184 216 228 231 240 251 253 258 265 271 272 274 273 278 285 288 290 291 292 289 289 290
176 168 169 172 174 177 179 180 179 174 169 159 153 160 157 151 150 152 154 158 177 205 226 231 233 238 249 257 262 267 273 272 266 270 278 282 285 287 287 287 288 292 293
172 170 171 169 172 174 176 177 179 181 179 169 157 148 151 149 151 163 181 208 203 205 213 226 232 239 249 257 266 270 272 275 276 272 272 276 281 281 282 284 286 283 281
168 161 166 168 170 171 174 177 179 179 180 181 180 165 156 168 177 178 197 211 209 210 214 216 221 234 244 251 259 267 272 275 279 277 279 280 283 283 285 286 288 288 287
167 162 167 172 174 176 178 182 182 181 182 181 180 163 171 189 191 189 192 197 204 207 212 218 220 221 235 252 263 266 272 280 284 287 289 292 293 292 292 290 290 290 292
171 169 176 178 176 178 181 183 184 183 181 179 169 161 174 197 191 190 191 192 198 204 205 209 213 221 237 249 260 270 278 284 288 289 290 293 293 293 294 294 295 296 297
172 171 173 175 175 170 178 182 182 180 178 177 171 169 178 190 188 190 189 187 188 192 195 204 214 223 234 249 262 273 280 286 291 295 294 292 293 296 296 295 296 297 296
174 175 175 174 175 177 180 181 181 179 178 177 177 177 180 183 186 186 185 182 186 193 198 206 220 232 244 262 273 284 299 309 302 293 292 292 293 294 293 293 294 295 293
178 177 177 177 177 179 180 180 180 179 178 178 179 177 178 180 181 181 180 179 186 197 207 220 224 234 250 266 279 300 348 333 311 302 292 289 290 292 294 294 293 294 295
178 178 178 177 178 180 179 179 179 176 176 176 177 177 179 181 180 178 178 182 189 195 203 216 226 238 257 270 294 325 331 307 298 293 289 288 290 291 295 291 293 293 293